WetterOnline ( http://www.wetteronline.de )

Wetter aktuell Karlsruhe

Aktuelles Wetter: Rheinstetten (116m)

6-stündlich | Neueste Meldungen
Ortszeit Temperatur Wetter
Mo, 20.08. 14:00 27.4° C fast wolkenlos
Mo, 20.08. 8:00 18.9° C leicht bewölkt
Mo, 20.08. 2:00 18.0° C fast wolkenlos
So, 19.08. 20:00 28.5° C fast wolkenlos
So, 19.08. 14:00 27.5° C leicht bewölkt
So, 19.08. 8:00 17.8° C bewölkt
So, 19.08. 2:00 17.3° C wolkig
Sa, 18.08. 20:00 26.6° C fast wolkenlos
Ortszeit Temperatur Wetter
Mo, 20.08. 16:00 28.2° C leicht bewölkt
Mo, 20.08. 15:50 28.2° C leicht bewölkt
Mo, 20.08. 15:40 28.1° C bewölkt
Mo, 20.08. 15:30 29.2° C bewölkt
Mo, 20.08. 15:20 29.2° C bedeckt
Mo, 20.08. 15:10 30.4° C leicht bewölkt
Mo, 20.08. 15:00 28.8° C leicht bewölkt
Mo, 20.08. 14:30 28.6° C wolkenlos
Mo, 20.08. 14:00 27.4° C fast wolkenlos
Mo, 20.08. 13:30 28.4° C wolkenlos
Mo, 20.08. 13:00 26.8° C wolkenlos
Ortszeit Relative Feuchte Sichtweite
Mo, 20.08. 14:00 44% 35 km
Mo, 20.08. 8:00 68% 25 km
Mo, 20.08. 2:00 74% 29 km
So, 19.08. 20:00 36% 70 km
So, 19.08. 14:00 32% 27 km
So, 19.08. 8:00 74% 24 km
So, 19.08. 2:00 82% 16 km
Sa, 18.08. 20:00 45% 30 km
Ortszeit Relative Feuchte Sichtweite
Mo, 20.08. 16:00 45% 30 km
Mo, 20.08. 15:50 45% -
Mo, 20.08. 15:40 45% -
Mo, 20.08. 15:30 41% 25 km
Mo, 20.08. 15:20 41% -
Mo, 20.08. 15:10 38% -
Mo, 20.08. 15:00 41% 23 km
Mo, 20.08. 14:30 42% 19 km
Mo, 20.08. 14:00 44% 35 km
Mo, 20.08. 13:30 42% 15 km
Mo, 20.08. 13:00 45% 17 km
Ortszeit Niederschlagsmenge Niederschlagsart
Mo, 20.08. 14:00 0.0 l/m2 in 6 Std. -
Mo, 20.08. 8:00 0.0 l/m2 in 12 Std. -
Mo, 20.08. 2:00 0.0 l/m2 in 6 Std. -
So, 19.08. 20:00 0.0 l/m2 in 12 Std. -
So, 19.08. 14:00 0.0 l/m2 in 6 Std. -
So, 19.08. 8:00 0.0 l/m2 in 12 Std. -
So, 19.08. 2:00 0.0 l/m2 in 6 Std. -
Sa, 18.08. 20:00 0.0 l/m2 in 12 Std. -
Ortszeit Niederschlagsmenge Niederschlagsart
Mo, 20.08. 16:00 0.0 l/m2 in 1 Std. -
Mo, 20.08. 15:50 keine Meldung -
Mo, 20.08. 15:40 keine Meldung -
Mo, 20.08. 15:30 0.0 l/m2 in 1 Std. -
Mo, 20.08. 15:20 keine Meldung -
Mo, 20.08. 15:10 keine Meldung -
Mo, 20.08. 15:00 0.0 l/m2 in 1 Std. -
Mo, 20.08. 14:30 0.0 l/m2 in 1 Std. -
Mo, 20.08. 14:00 0.0 l/m2 in 1 Std. -
Mo, 20.08. 13:30 0.0 l/m2 in 1 Std. -
Mo, 20.08. 13:00 0.0 l/m2 in 1 Std. -
Ortszeit Stärke Spitze Richtung
km/h Bft. km/h Grad Sektor
Mo, 20.08. 14:00 11 2 29 240° SW
Mo, 20.08. 8:00 7 2 15 240° SW
Mo, 20.08. 2:00 7 2 11 220° SW
So, 19.08. 20:00 9 2 24 260° W
So, 19.08. 14:00 7 2 14 300° NW
So, 19.08. 8:00 4 1 7 160° S
So, 19.08. 2:00 4 1 7 280° W
Sa, 18.08. 20:00 7 2 29 270° W
Ortszeit Stärke Spitze Richtung
km/h Bft. km/h Grad Sektor
Mo, 20.08. 16:00 13 3 33 340° N
Mo, 20.08. 15:50 13 3 - 340° N
Mo, 20.08. 15:40 13 3 - 320° NW
Mo, 20.08. 15:30 15 3 33 290° W
Mo, 20.08. 15:20 15 3 - 290° W
Mo, 20.08. 15:10 11 2 - 240° SW
Mo, 20.08. 15:00 14 3 29 260° W
Mo, 20.08. 14:30 11 2 29 250° W
Mo, 20.08. 14:00 11 2 29 240° SW
Mo, 20.08. 13:30 11 2 22 250° W
Mo, 20.08. 13:00 11 2 22 290° W
Ortszeit Untergrenze Bedeckung Gattung
total tief tief mittel hoch
Mo, 20.08. 14:00 1470 m 1/8 1/8 - - -
Mo, 20.08. 8:00 2100 m 3/8 3/8 - - -
Mo, 20.08. 2:00 3000 m 1/8 1/8 - - -
So, 19.08. 20:00 12000 m 2/8 0/8 - - -
So, 19.08. 14:00 1800 m 6/8 1/8 - - -
So, 19.08. 8:00 1800 m 7/8 7/8 - - -
So, 19.08. 2:00 2400 m 8/8 2/8 - - -
Sa, 18.08. 20:00 3000 m 1/8 1/8 - - -
Ortszeit Bedeckungsgrad in Achtel und Wolkenuntergrenze
Mo, 20.08. 16:00 4(1800m)
Mo, 20.08. 15:50 4(1800m)
Mo, 20.08. 15:40 7(1500m)
Mo, 20.08. 15:30 5(1500m) 9 9
Mo, 20.08. 15:20 9 9 9
Mo, 20.08. 15:10 2(1500m)
Mo, 20.08. 15:00 1(1500m)
Mo, 20.08. 14:30 keine Wolken
Mo, 20.08. 14:00 1(1470m)
Mo, 20.08. 13:30 keine Wolken
Mo, 20.08. 13:00 keine Wolken
Ortszeit Luftdruck NN (hPa) Tendenz (hPa in 3 Std.)
Mo, 20.08. 14:00 1019 - 1,1
Mo, 20.08. 8:00 1020 + 0,1
Mo, 20.08. 2:00 1020 + 0,5
So, 19.08. 20:00 1018 - 0,8
So, 19.08. 14:00 1021 - 1,4
So, 19.08. 8:00 1022 + 0,4
So, 19.08. 2:00 1022 0,0
Sa, 18.08. 20:00 1020 - 0,4
Ortszeit Luftdruck NN (hPa) Tendenz (hPa in 3 Std.)
Mo, 20.08. 16:00 1018 - 1,0
Mo, 20.08. 15:50 1018 keine Meldung
Mo, 20.08. 15:40 1018 keine Meldung
Mo, 20.08. 15:30 1018 - 1,2
Mo, 20.08. 15:20 1018 keine Meldung
Mo, 20.08. 15:10 1018 keine Meldung
Mo, 20.08. 15:00 1019 - 1,3
Mo, 20.08. 14:30 1019 - 1,2
Mo, 20.08. 14:00 1019 - 1,1
Mo, 20.08. 13:30 1019 - 0,9
Mo, 20.08. 13:00 1019 - 0,7
Ortszeit Schneehöhe (cm)
Mo, 20.08. 14:00 -
Mo, 20.08. 8:00 -
Mo, 20.08. 2:00 -
So, 19.08. 20:00 -
So, 19.08. 14:00 -
So, 19.08. 8:00 -
So, 19.08. 2:00 -
Sa, 18.08. 20:00 -
Ortszeit Schneehöhe (cm)
Mo, 20.08. 16:00 -
Mo, 20.08. 15:50 -
Mo, 20.08. 15:40 -
Mo, 20.08. 15:30 -
Mo, 20.08. 15:20 -
Mo, 20.08. 15:10 -
Mo, 20.08. 15:00 -
Mo, 20.08. 14:30 -
Mo, 20.08. 14:00 -
Mo, 20.08. 13:30 -
Mo, 20.08. 13:00 -
Link zu dieser Seite / Seite empfehlen

Das Wetter in ...